Location: Chippewa Lake
(41.0698°N, 81.9010°W)
Time: 03:33:35
(UTC+00:00)

SL-8 Rocket - Pass Details

Date: 02 October 2021
Orbit: 958 x 990 km, 82.9° (Epoch: 17 October)

Event Time Altitude Azimuth Distance (km) Brightness Sun altitude
Rises 23:48:20 0° 164° (SSE) 3,674 6.8 -8.6°
Reaches altitude 10° 23:50:58 10° 157° (SSE) 2,734 6.1 -9.1°
Maximum altitude 23:56:47 41° 89° (E) 1,392 4.4 -10.1°
Drops below altitude 10° 00:02:38 10° 21° (NNE) 2,759 6.2 -11.3°
Sets 00:05:18 0° 15° (NNE) 3,712 6.9 -11.8°
